sat.trackr.live / text

‹ back to catalog

STARLINK-4037

NORAD 52663 · 2022-053H

PAYLOAD ACTIVE UNKNOWN

§ Identity

Operator
Country
US
Launch date
2022-05-18
Launch site
AFETR
Launch vehicle
Mass (kg)
RCS (m²)

Purposes: comms

External: N2YO · Heavens-Above · Gunter

§ Orbital elements

Epoch: 2026-05-25T01:08:35.337408Z

Period
95.44 min
Inclination
53.2140°
Eccentricity
0.0001280
Mean motion
15.08835622 rev/d
Perigee alt
538.9 km
Apogee alt
540.6 km
Semi-major
6,917.9 km
B*
1.8235e-5
RAAN
171.3404°
Arg perigee
70.5108°
Mean anomaly
289.6022°
Rev number
22,257

§ Raw data

STARLINK-40371 52663U 22053H   26145.04763122  .00000002  00000+0  18235-4 0  99912 52663  53.2140 171.3404 0001280  70.5108 289.6022 15.08835622222578

JSON: /api/v1/satellites/52663 · /tle

For live sub-satellite position, see the globe view (requires WebGL).

§ Visibility from observer

Set your observer location to see the next 7 days of passes ≥ 10°. The values pass through the URL so the page stays shareable.

No JS? Fill the form by hand. The geolocation button needs JavaScript.